This demonstration page uses our WeatherBlox Daily Observations layout. Learn more.

Left ArrowRight Arrow

47.50024, -111.30081

Hourly Observations for January 14, 2020

Temp ( °F °C ) Dew Point ( °F °C ) Humidity (%) Winds ( mph kmh ) Pressure ( in mb ) Visibility ( mi km ) Precip ( " mm )
12:53 am 00:53 Cloudy -9 -22.8 -15 -26.1 75 75 NNE 7 11 30.18 1022 10 16 0.00 0.00
1:53 am 01:53 Cloudy -9 -22.8 -15 -26.1 75 75 NE 8 13 30.17 1022 10 16 0.00 0.00
2:53 am 02:53 Cloudy -10 -23.3 -16 -26.7 74 74 NE 9 15 30.17 1022 10 16 0.00 0.00
3:53 am 03:53 Cloudy -10 -23.3 -16 -26.7 74 74 NE 7 11 30.18 1022 10 16 0.00 0.00
4:53 am 04:53 Cloudy -11 -23.9 -17 -27.2 74 74 NE 8 13 30.18 1022 10 16 0.00 0.00
5:33 am 05:33 Cloudy -11 -23.9 -18 -27.8 70 70 NE 9 15 30.37 1029 10 16 0.00 0.00
5:53 am 05:53 Cloudy -11 -23.9 -18 -27.8 70 70 ENE 8 13 30.19 1022 10 16 0.00 0.00
6:53 am 06:53 Cloudy -11 -23.9 -19 -28.3 67 67 NE 8 13 30.18 1022 9 14 0.00 0.00
7:53 am 07:53 Cloudy -12 -24.4 -18 -27.8 73 73 NE 7 11 30.18 1022 8 13 0.00 0.00
8:53 am 08:53 Cloudy -10 -23.3 -17 -27.2 70 70 NE 8 13 30.19 1022 9 14 0.00 0.00
9:39 am 09:39 Cloudy with Light Snow -10 -23.3 -17 -27.2 70 70 NE 8 13 30.37 1029 2 2 0.00 0.00
9:48 am 09:48 Cloudy with Light Snow -9 -23 -17 -27 70 70 ENE 7 11 30.38 1029 2 2 0.00 0.00
9:53 am 09:53 Cloudy with Light Snow -10 -23.3 -17 -27.2 70 70 ENE 7 11 30.20 1023 2 3 0.00 0.00
10:12 am 10:12 Cloudy with Haze -9 -22.8 -17 -27.2 67 67 ENE 6 9 30.38 1029 5 8 0.00 0.00
10:27 am 10:27 Cloudy with Light Snow -9 -22.8 -17 -27.2 67 67 E 6 9 30.38 1029 3 4 0.00 0.00
10:53 am 10:53 Cloudy with Haze -9 -22.8 -17 -27.2 67 67 ENE 6 9 30.21 1023 6 10 0.01 0.25
11:01 am 11:01 Cloudy -9 -22.8 -17 -27.2 67 67 NE 6 9 30.39 1029 8 13 0.00 0.00
11:53 am 11:53 Cloudy with Light Snow -8 -22.2 -17 -27.2 64 64 NE 5 7 30.20 1023 3 4 0.00 0.00
12:00 pm 12:00 Cloudy with Light Snow -8 -22.2 -17 -27.2 64 64 NE 6 9 30.36 1028 1 2 0.00 0.00
12:16 pm 12:16 Cloudy with Light Snow -8 -22.2 -16 -26.7 67 67 ENE 6 9 30.35 1028 2 3 0.00 0.00
12:25 pm 12:25 Cloudy with Haze -8 -22.2 -16 -26.7 67 67 VRB 3 6 30.36 1028 3 5 0.00 0.00
12:30 pm 12:30 Cloudy -8 -22.2 -17 -27.2 64 64 Calm 30.36 1028 9 14 0.00 0.00
12:39 pm 12:39 Mostly Cloudy -7 -21.7 -16 -26.7 64 64 VRB 5 7 30.36 1028 10 16 0.00 0.00
12:53 pm 12:53 Mostly Cloudy -8 -22.2 -16 -26.7 67 67 E 5 7 30.19 1022 9 14 0.00 0.00
1:14 pm 13:14 Mostly Cloudy -6 -21.1 -16 -26.7 61 61 VRB 3 6 30.32 1027 10 16 0.00 0.00
1:53 pm 13:53 Cloudy -7 -21.7 -16 -26.7 64 64 NE 7 11 30.18 1022 10 16 0.00 0.00
2:53 pm 14:53 Cloudy with Haze -5 -20.6 -15 -26.1 62 62 NNE 7 11 30.17 1022 6 10 0.00 0.00
3:46 pm 15:46 Cloudy with Haze -7 -21.7 -16 -26.7 64 64 NNE 5 7 30.35 1028 4 6 0.00 0.00
3:53 pm 15:53 Cloudy -7 -21.7 -16 -26.7 64 64 NNE 6 9 30.20 1023 7 11 0.00 0.00
4:21 pm 16:21 Mostly Cloudy -8 -22.2 -16 -26.7 67 67 NNE 8 13 30.36 1028 10 16 0.00 0.00
4:38 pm 16:38 Partly Cloudy -9 -22.8 -17 -27.2 67 67 NE 7 11 30.38 1029 9 14 0.00 0.00
4:53 pm 16:53 Sunny -9 -22.8 -17 -27.2 67 67 NE 6 9 30.22 1023 10 16 0.00 0.00
5:53 pm 17:53 Clear -10 -23.3 -17 -27.2 70 70 NE 8 13 30.23 1024 10 16 0.00 0.00
6:53 pm 18:53 Partly Cloudy -11 -23.9 -17 -27.2 74 74 ENE 8 13 30.22 1023 10 16 0.00 0.00
7:53 pm 19:53 Clear -11 -23.9 -17 -27.2 74 74 ENE 8 13 30.22 1023 10 16 0.00 0.00
8:53 pm 20:53 Mostly Clear -12 -24.4 -17 -27.2 78 78 NE 9 15 30.23 1024 9 14 0.00 0.00
9:53 pm 21:53 Cloudy -11 -23.9 -16 -26.7 78 78 E 7 11 30.26 1025 10 16 0.00 0.00
10:53 pm 22:53 Mostly Clear -11 -23.9 -16 -26.7 78 78 E 7 11 30.26 1025 10 16 0.00 0.00
11:25 pm 23:25 Mostly Clear -11 -23.9 -17 -27.2 74 74 NE 6 9 30.47 1032 9 14 0.00 0.00
11:53 pm 23:53 Mostly Clear -11 -23.9 -16 -26.7 78 78 NNE 7 11 30.29 1026 10 16 0.00 0.00

Powered by AerisWeather